This demonstration page uses our WeatherBlox Daily Observations layout. Learn more.

Hourly Observations for May 10, 2018

Temp ( °F °C ) Dew Point ( °F °C ) Humidity (%) Winds ( mph kmh ) Pressure ( in mb ) Visibility ( mi km ) Precip ( " mm )
1:55 am 01:55 Clear 61 16 52 11 72 72 S 5 7 30.06 1018 10 16.09344 0 0
2:15 am 02:15 Clear 61 16 52 11 72 72 S 3 6 30.03 1017 10 16.09344 0 0
2:35 am 02:35 Clear 61 16 52 11 72 72 SSE 3 6 30.03 1017 10 16.09344 0 0
2:55 am 02:55 Clear 61 16 52 11 72 72 SSE 6 9 30.03 1017 10 16.09344 0 0
3:15 am 03:15 Clear 61 16 52 11 72 72 SSW 3 6 30.03 1017 10 16.09344 0 0
3:35 am 03:35 Clear 61 16 52 11 72 72 S 6 9 30.03 1017 10 16.09344 0 0
3:55 am 03:55 Clear 61 16 54 12 77 77 S 6 9 30 1016 10 16.09344 0 0
4:15 am 04:15 Clear 59 15 54 12 82 82 SSW 5 7 30 1016 10 16.09344 0 0
4:35 am 04:35 Clear 59 15 54 12 82 82 S 3 6 30 1016 10 16.09344 0 0
4:55 am 04:55 Clear 59 15 54 12 82 82 S 5 7 30 1016 10 16.09344 0 0
5:15 am 05:15 Clear 59 15 55 13 88 88 S 5 7 30 1016 10 16.09344 0 0
5:35 am 05:35 Clear 59 15 55 13 88 88 S 7 11 30 1016 10 16.09344 0 0
5:55 am 05:55 Partly Cloudy 59 15 55 13 88 88 S 7 11 30 1016 10 16.09344 0 0
6:15 am 06:15 Partly Cloudy 59 15 55 13 88 88 S 7 11 30 1016 10 16.09344 0 0
6:35 am 06:35 Mostly Cloudy 59 15 57 14 94 94 S 7 11 30 1016 10 16.09344 0 0
6:55 am 06:55 Mostly Cloudy 59 15 57 14 94 94 S 8 13 30 1016 10 16.09344 0 0
7:15 am 07:15 Mostly Cloudy 61 16 59 15 94 94 S 9 15 29.97 1015 10 16.09344 0 0
7:35 am 07:35 Mostly Cloudy 61 16 59 15 94 94 S 10 17 29.97 1015 10 16.09344 0 0
7:55 am 07:55 Mostly Cloudy 61 16 59 15 94 94 S 10 17 29.97 1015 10 16.09344 0 0
8:15 am 08:15 Mostly Cloudy 61 16 59 15 94 94 SSW 6 9 29.97 1015 10 16.09344 0 0
8:35 am 08:35 Mostly Cloudy 63 17 59 15 88 88 SSW 7 11 29.97 1015 10 16.09344 0 0
8:55 am 08:55 Cloudy with Nearby Thunderstorms 63 17 59 15 88 88 SSW 6 9 29.97 1015 10 16.09344 0 0
9:15 am 09:15 Cloudy 63 17 59 15 88 88 S 6 9 29.97 1015 10 16.09344 0 0
9:35 am 09:35 Cloudy 64 18 61 16 88 88 SSW 5 7 29.97 1015 10 16.09344 0 0
9:55 am 09:55 Partly Cloudy 64 18 61 16 88 88 S 7 11 29.94 1014 10 16.09344 0 0
10:15 am 10:15 Partly Cloudy 68 20 61 16 78 78 S 6 9 29.97 1015 10 16.09344 0 0
10:35 am 10:35 Mostly Cloudy with Light Rain 68 20 61 16 78 78 SW 3 6 29.97 1015 10 16.09344 0 0
10:55 am 10:55 Cloudy with Light Drizzle 68 20 61 16 78 78 S 7 11 29.94 1014 10 16.09344 0 0
11:15 am 11:15 Mostly Cloudy 68 20 63 17 83 83 S 3 6 29.94 1014 10 16.09344 0 0
11:35 am 11:35 Partly Cloudy 70 21 63 17 78 78 SSW 3 6 29.94 1014 10 16.09344 0 0
11:55 am 11:55 Sunny 72 22 63 17 73 73 S 8 13 29.94 1014 10 16.09344 0 0
12:15 pm 12:15 Sunny 73 23 63 17 69 69 S 9 15 29.91 1013 10 16.09344 0 0
12:35 pm 12:35 Sunny 77 25 63 17 61 61 S 7 11 29.91 1013 10 16.09344 0 0
12:55 pm 12:55 Sunny 79 26 63 17 58 58 S 7 11 29.91 1013 10 16.09344 0 0
1:15 pm 13:15 Sunny 79 26 63 17 58 58 S 8 13 29.91 1013 10 16.09344 0 0
1:35 pm 13:35 Sunny 81 27 63 17 54 54 S 8 13 29.88 1012 10 16.09344 0 0
1:55 pm 13:55 Sunny 79 26 63 17 58 58 S 9 15 29.88 1012 10 16.09344 0 0
2:15 pm 14:15 Partly Cloudy 81 27 64 18 58 58 SSW 7 11 29.88 1012 10 16.09344 0 0
2:35 pm 14:35 Mostly Cloudy with Light Rain 79 26 66 19 65 65 SSW 5 7 29.88 1012 10 16.09344 0 0
2:55 pm 14:55 Mostly Cloudy with Light Rain 81 27 66 19 62 62 WSW 5 7 29.85 1011 10 16.09344 0 0
3:15 pm 15:15 Partly Cloudy 79 26 66 19 65 65 S 7 11 29.85 1011 10 16.09344 0 0
3:35 pm 15:35 Sunny with Nearby Thunderstorms 81 27 64 18 58 58 SSE 6 9 29.83 1010 10 16.09344 0 0
3:55 pm 15:55 Sunny 84 29 64 18 51 51 SSW 14 22 29.8 1009 10 16.09344 0 0
4:15 pm 16:15 Partly Cloudy 81 27 64 18 58 58 SSW 10 17 29.83 1010 10 16.09344 0 0
4:35 pm 16:35 Cloudy with Light Rain 79 26 63 17 58 58 WSW 9 15 29.83 1010 10 16.09344 0 0
4:55 pm 16:55 Mostly Cloudy 73 23 68 20 83 83 SW 6 9 29.83 1010 7 11.265408 0.05 1.27
5:15 pm 17:15 Partly Cloudy 73 23 70 21 89 89 S 5 7 29.83 1010 10 16.09344 0 0
5:35 pm 17:35 Sunny 77 25 70 21 79 79 SSW 3 6 29.83 1010 10 16.09344 0 0
5:55 pm 17:55 Sunny 77 25 70 21 79 79 S 6 9 29.8 1009 10 16.09344 0 0
6:15 pm 18:15 Partly Cloudy 77 25 70 21 79 79 WNW 3 6 29.83 1010 10 16.09344 0 0
6:35 pm 18:35 Mostly Cloudy with Light Rain 73 23 68 20 83 83 W 13 20 29.83 1010 10 16.09344 0 0
6:55 pm 18:55 Partly Cloudy 73 23 68 20 83 83 Calm 29.83 1010 10 16.09344 0 0
7:15 pm 19:15 Sunny 73 23 68 20 83 83 WSW 5 7 29.83 1010 10 16.09344 0 0
7:35 pm 19:35 Sunny 73 23 64 18 74 74 WSW 5 7 29.85 1011 10 16.09344 0 0
7:55 pm 19:55 Partly Cloudy 72 22 63 17 73 73 WSW 8 13 29.85 1011 10 16.09344 0 0
8:15 pm 20:15 Partly Cloudy 70 21 61 16 73 73 WSW 5 7 29.85 1011 10 16.09344 0 0
8:35 pm 20:35 Clear 68 20 61 16 78 78 WSW 5 7 29.88 1012 10 16.09344 0 0
8:55 pm 20:55 Clear 68 20 61 16 78 78 WSW 5 7 29.88 1012 10 16.09344 0 0
9:15 pm 21:15 Clear 68 20 61 16 78 78 SW 6 9 29.88 1012 10 16.09344 0 0
9:35 pm 21:35 Partly Cloudy 68 20 61 16 78 78 WSW 6 9 29.91 1013 10 16.09344 0 0
9:55 pm 21:55 Clear 66 19 61 16 83 83 W 7 11 29.91 1013 10 16.09344 0 0
10:15 pm 22:15 Clear 64 18 59 15 83 83 W 7 11 29.91 1013 10 16.09344 0 0
10:35 pm 22:35 Clear 66 19 59 15 78 78 W 6 9 29.91 1013 10 16.09344 0 0
10:55 pm 22:55 Clear 64 18 61 16 88 88 W 6 9 29.91 1013 10 16.09344 0 0
11:15 pm 23:15 Mostly Cloudy 66 19 61 16 83 83 W 5 7 29.91 1013 10 16.09344 0 0
11:35 pm 23:35 Partly Cloudy 66 19 61 16 83 83 WSW 3 6 29.91 1013 10 16.09344 0 0
11:55 pm 23:55 Clear 64 18 61 16 88 88 W 3 6 29.91 1013 10 16.09344 0 0

Powered by AerisWeather